| time (UTC) | temp F | wind direction | speed MPH | gust MPH | rain 1hr in | rain 24hr in | rain mn in | humidity % | barometer mb |
| 20260902053030 | 70 | 112 | 0.0 | 1.0 | 0.00 | 0.35 | 0.02 | 99 | 1016.6 |
| 20260902051528 | 70 | 136 | 0.0 | 1.0 | 0.01 | 0.35 | 0.02 | 99 | 1016.5 |
| 20260902050027 | 70 | 136 | 0.0 | 1.0 | 0.02 | 0.35 | 0.02 | 98 | 1015.7 |
| 20260902044524 | 70 | 127 | 0.0 | 2.0 | 0.05 | 0.35 | 0.02 | 98 | 1015.9 |
| 20260902043031 | 70 | 148 | 0.0 | 0.0 | 0.07 | 0.35 | 0.02 | 98 | 1016.4 |
| 20260902041519 | 70 | 215 | 0.0 | 2.0 | 0.13 | 0.34 | 0.01 | 98 | 1016.8 |
| 20260902040016 | 71 | 218 | 0.0 | 2.0 | 0.27 | 0.33 | 0.33 | 97 | 1017.0 |
| 20260902034517 | 71 | 113 | 0.0 | 4.0 | 0.28 | 0.28 | 0.28 | 97 | 1017.3 |
| 20260902033035 | 72 | 243 | 0.0 | 1.0 | 0.28 | 0.28 | 0.28 | 97 | 1017.4 |
| 20260902031516 | 72 | 243 | 0.0 | 2.0 | 0.21 | 0.21 | 0.21 | 96 | 1016.5 |
| 20260902030020 | 74 | 250 | 0.0 | 3.0 | 0.06 | 0.09 | 0.06 | 92 | 1016.7 |
| 20260902024515 | 74 | 72 | 0.0 | 0.0 | 0.00 | 0.03 | 0.00 | 89 | 1015.9 |
| 20260902023013 | 75 | 72 | 0.0 | 0.0 | 0.00 | 0.00 | 0.00 | 87 | 1015.4 |
| 20260902021522 | 76 | 96 | 0.0 | 5.0 | 0.00 | 0.03 | 0.00 | 85 | 1015.8 |
| 20260902020012 | 78 | 46 | 0.0 | 5.0 | 0.00 | 0.03 | 0.00 | 77 | 1016.0 |
| 20260902014510 | 80 | 129 | 0.0 | 2.0 | 0.00 | 0.03 | 0.00 | 76 | 1015.3 |
| 20260902013009 | 81 | 61 | 0.0 | 2.0 | 0.00 | 0.03 | 0.00 | 75 | 1014.6 |
| 20260902011509 | 82 | 145 | 0.0 | 2.0 | 0.00 | 0.03 | 0.00 | 75 | 1014.5 |
| 20260902010011 | 83 | 109 | 0.0 | 1.0 | 0.00 | 0.03 | 0.00 | 76 | 1014.2 |
| 20260902004516 | 83 | 211 | 0.0 | 1.0 | 0.00 | 0.03 | 0.00 | 80 | 1014.3 |
| 20260902003008 | 84 | 211 | 0.0 | 0.0 | 0.00 | 0.03 | 0.00 | 79 | 1013.7 |
| 20260902001508 | 84 | 211 | 0.0 | 0.0 | 0.00 | 0.03 | 0.00 | 78 | 1013.4 |
| 20260902000013 | 84 | 211 | 0.0 | 0.0 | 0.00 | 0.03 | 0.00 | 76 | 1013.0 |
| 20260901234506 | 85 | 211 | 0.0 | 0.0 | 0.00 | 0.03 | 0.00 | 75 | 1012.7 |
| 20260901233009 | 86 | 211 | 0.0 | 0.0 | 0.00 | 0.03 | 0.00 | 75 | 1012.8 |
| 20260901231506 | 87 | 213 | 0.0 | 1.0 | 0.00 | 0.03 | 0.00 | 76 | 1013.1 |
| 20260901230005 | 87 | 213 | 0.0 | 0.0 | 0.00 | 0.03 | 0.00 | 75 | 1013.1 |
| 20260901224516 | 87 | 213 | 0.0 | 0.0 | 0.00 | 0.03 | 0.00 | 75 | 1013.0 |
| 20260901223005 | 88 | 206 | 0.0 | 0.0 | 0.00 | 0.03 | 0.00 | 74 | 1013.1 |
| 20260901221504 | 88 | 224 | 0.0 | 2.0 | 0.00 | 0.03 | 0.00 | 74 | 1012.8 |
| 20260901220003 | 89 | 206 | 0.0 | 1.0 | 0.00 | 0.03 | 0.00 | 74 | 1012.8 |
| 20260901214501 | 90 | 207 | 0.0 | 5.0 | 0.00 | 0.03 | 0.00 | 71 | 1012.9 |
| 20260901213002 | 91 | 221 | 0.0 | 2.0 | 0.00 | 0.03 | 0.00 | 69 | 1012.9 |
| 20260901211600 | 92 | 231 | 0.0 | 3.0 | 0.00 | 0.03 | 0.00 | 67 | 1013.1 |
| 20260901210058 | 92 | 229 | 0.0 | 4.0 | 0.00 | 0.03 | 0.00 | 67 | 1013.2 |
| 20260901204557 | 92 | 213 | 0.0 | 2.0 | 0.00 | 0.03 | 0.00 | 66 | 1013.2 |
| 20260901203058 | 92 | 210 | 0.0 | 4.0 | 0.00 | 0.03 | 0.00 | 68 | 1013.3 |
| 20260901201552 | 92 | 209 | 1.0 | 5.0 | 0.00 | 0.03 | 0.00 | 67 | 1013.5 |
| 20260901200105 | 93 | 222 | 0.0 | 3.0 | 0.00 | 0.03 | 0.00 | 68 | 1013.7 |
| 20260901194556 | 93 | 196 | 0.0 | 3.0 | 0.00 | 0.03 | 0.00 | 68 | 1013.9 |
| 20260901193042 | 92 | 198 | 0.0 | 5.0 | 0.00 | 0.03 | 0.00 | 68 | 1014.1 |
| 20260901191543 | 91 | 140 | 0.0 | 3.0 | 0.00 | 0.03 | 0.00 | 67 | 1014.3 |
| 20260901190041 | 90 | 214 | 0.0 | 3.0 | 0.00 | 0.03 | 0.00 | 70 | 1014.5 |
| 20260901184534 | 89 | 163 | 0.0 | 3.0 | 0.00 | 0.03 | 0.00 | 73 | 1014.7 |
| 20260901183027 | 86 | 237 | 0.0 | 5.0 | 0.00 | 0.03 | 0.00 | 74 | 1014.9 |
| 20260901181530 | 87 | 226 | 1.0 | 4.0 | 0.00 | 0.03 | 0.00 | 72 | 1014.9 |
| 20260901180026 | 88 | 232 | 0.0 | 3.0 | 0.00 | 0.03 | 0.00 | 73 | 1014.8 |
| 20260901174536 | 87 | 215 | 0.0 | 3.0 | 0.00 | 0.03 | 0.00 | 74 | 1014.9 |
| 20260901173029 | 86 | 233 | 0.0 | 5.0 | 0.00 | 0.03 | 0.00 | 74 | 1014.7 |
| 20260901171520 | 86 | 255 | 0.0 | 5.0 | 0.00 | 0.03 | 0.00 | 75 | 1014.8 |
| 20260901170017 | 86 | 222 | 0.0 | 5.0 | 0.00 | 0.03 | 0.00 | 77 | 1015.0 |
| 20260901164513 | 85 | 226 | 0.0 | 4.0 | 0.00 | 0.03 | 0.00 | 78 | 1015.2 |
| 20260901163010 | 84 | 232 | 0.0 | 5.0 | 0.00 | 0.03 | 0.00 | 80 | 1015.2 |
| 20260901161516 | 84 | 213 | 0.0 | 3.0 | 0.00 | 0.03 | 0.00 | 80 | 1015.5 |
| 20260901160004 | 83 | 212 | 1.0 | 3.0 | 0.00 | 0.03 | 0.00 | 81 | 1015.6 |
| 20260901154500 | 81 | 200 | 0.0 | 2.0 | 0.00 | 0.03 | 0.00 | 83 | 1015.9 |
| 20260901153059 | 80 | 217 | 0.0 | 3.0 | 0.00 | 0.03 | 0.00 | 85 | 1016.0 |
| 20260901151606 | 80 | 228 | 0.0 | 3.0 | 0.00 | 0.03 | 0.00 | 86 | 1015.9 |
| 20260901150057 | 80 | 212 | 0.0 | 3.0 | 0.00 | 0.03 | 0.00 | 85 | 1016.0 |
| 20260901144556 | 80 | 244 | 0.0 | 1.0 | 0.00 | 0.03 | 0.00 | 86 | 1016.2 |
| 20260901143109 | 80 | 255 | 0.0 | 2.0 | 0.00 | 0.03 | 0.00 | 87 | 1016.2 |
| 20260901141556 | 80 | 215 | 0.0 | 2.0 | 0.00 | 0.03 | 0.00 | 86 | 1016.0 |
| 20260901140104 | 81 | 38 | 0.0 | 1.0 | 0.00 | 0.03 | 0.00 | 85 | 1016.0 |
| 20260901134550 | 79 | 224 | 0.0 | 2.0 | 0.00 | 0.03 | 0.00 | 87 | 1016.1 |
| 20260901133046 | 78 | 233 | 0.0 | 4.0 | 0.00 | 0.03 | 0.00 | 90 | 1016.2 |
| 20260901131542 | 76 | 231 | 0.0 | 1.0 | 0.00 | 0.03 | 0.00 | 92 | 1016.4 |
| 20260901130037 | 74 | 226 | 0.0 | 1.0 | 0.00 | 0.03 | 0.00 | 95 | 1016.5 |
| 20260901124536 | 74 | 216 | 0.0 | 1.0 | 0.00 | 0.03 | 0.00 | 96 | 1016.3 |
| 20260901123035 | 74 | 216 | 0.0 | 1.0 | 0.00 | 0.03 | 0.00 | 96 | 1016.5 |
| 20260901121547 | 74 | 215 | 0.0 | 1.0 | 0.00 | 0.03 | 0.00 | 96 | 1016.5 |
| 20260901120027 | 73 | 215 | 0.0 | 1.0 | 0.00 | 0.03 | 0.00 | 97 | 1016.6 |
| 20260901114524 | 72 | 206 | 0.0 | 0.0 | 0.00 | 0.03 | 0.00 | 98 | 1016.5 |
| 20260901113022 | 72 | 212 | 0.0 | 1.0 | 0.00 | 0.03 | 0.00 | 99 | 1016.4 |
| 20260901111522 | 71 | 223 | 0.0 | 0.0 | 0.00 | 0.03 | 0.00 | 99 | 1016.3 |
| 20260901110029 | 71 | 223 | 0.0 | 0.0 | 0.00 | 0.03 | 0.00 | 99 | 1016.4 |
| 20260901104522 | 71 | 224 | 0.0 | 0.0 | 0.00 | 0.03 | 0.00 | 99 | 1016.2 |
| 20260901103025 | 71 | 224 | 0.0 | 0.0 | 0.00 | 0.03 | 0.00 | 99 | 1016.2 |
| 20260901101525 | 71 | 224 | 0.0 | 0.0 | 0.00 | 0.03 | 0.00 | 99 | 1016.2 |
| 20260901100017 | 71 | 224 | 0.0 | 1.0 | 0.00 | 0.03 | 0.00 | 99 | 1016.1 |
| 20260901094517 | 71 | 224 | 0.0 | 0.0 | 0.00 | 0.03 | 0.00 | 99 | 1016.1 |
| 20260901093016 | 71 | 224 | 0.0 | 0.0 | 0.00 | 0.03 | 0.00 | 99 | 1016.2 |
| 20260901091515 | 71 | 224 | 0.0 | 0.0 | 0.00 | 0.03 | 0.00 | 99 | 1016.2 |
| 20260901090016 | 71 | 224 | 0.0 | 0.0 | 0.00 | 0.03 | 0.00 | 99 | 1016.4 |
| 20260901084513 | 71 | 224 | 0.0 | 0.0 | 0.00 | 0.03 | 0.00 | 99 | 1016.5 |
| 20260901083014 | 71 | 224 | 0.0 | 0.0 | 0.00 | 0.03 | 0.00 | 99 | 1016.6 |
| 20260901081517 | 71 | 224 | 0.0 | 0.0 | 0.00 | 0.03 | 0.00 | 99 | 1016.6 |
| 20260901080011 | 71 | 224 | 0.0 | 0.0 | 0.00 | 0.03 | 0.00 | 99 | 1016.6 |
| 20260901074509 | 71 | 224 | 0.0 | 0.0 | 0.00 | 0.03 | 0.00 | 99 | 1016.6 |
| 20260901073009 | 71 | 208 | 0.0 | 0.0 | 0.00 | 0.03 | 0.00 | 98 | 1016.3 |
| 20260901071515 | 71 | 208 | 0.0 | 0.0 | 0.00 | 0.03 | 0.00 | 98 | 1016.4 |
| 20260901070005 | 71 | 208 | 0.0 | 0.0 | 0.00 | 0.03 | 0.00 | 98 | 1016.6 |
| 20260901064504 | 71 | 208 | 0.0 | 0.0 | 0.00 | 0.03 | 0.00 | 98 | 1016.8 |
| 20260901063003 | 71 | 212 | 0.0 | 0.0 | 0.00 | 0.03 | 0.00 | 98 | 1016.8 |
| 20260901061505 | 71 | 212 | 0.0 | 0.0 | 0.00 | 0.03 | 0.00 | 98 | 1017.0 |
| 20260901054607 | 72 | 212 | 0.0 | 0.0 | 0.00 | 0.03 | 0.00 | 98 | 1017.2 |